Regional Weather Roundup
Issued by NWS

Home | Current Version | Previous Version | Graphics & Text | Print | Product List | Glossary On
Versions: 1 2 3 4 5 6 7 8 9 10 11 12 13 14 15 16 17 18 19 20 21 22 23 24 25 26 27 28 29 30 31 32 33 34 35 36 37 38 39 40 41 42 43 44 45 46 47 48 49 50
000
ASUS43 KDTX 291901
RWRMI
MICHIGAN HOURLY REGIONAL WEATHER ROUNDUP
NATIONAL WEATHER SERVICE DETROIT/PONTIAC MI
300 PM EDT FRI JUL 29 2016

NOTE: "FAIR" INDICATES FEW OR NO CLOUDS BELOW 12,000 FEET WITH NO
SIGNIFICANT WEATHER AND/OR OBSTRUCTION TO VISIBILITY.

MIZ047>049-052>055-059>063-066>070-074>076-081>083-292000-
SOUTHEAST LOWER MICHIGAN

CITY           SKY/WX    TMP DP  RH WIND       PRES   REMARKS
ADRIAN         CLOUDY    81  67  62 N9        29.94F
ALMA           LGT RAIN  70  68  93 N10       30.03F
ANN ARBOR      CLOUDY    75  69  81 NE5       29.94F THUNDER
BAD AXE        CLOUDY    72  59  64 NE9G16    30.04S
CARO           PTSUNNY   76  59  56 E8        30.01F
DETROIT CITY   CLOUDY    80  65  59 NE10      29.96S
DETROIT        CLOUDY    76  63  64 E17G29    29.95R
FLINT          CLOUDY    84  60  44 NE18      29.99S
GROSSE ILE     LGT RAIN  74  67  78 N9        29.95R
HILLSDALE      LGT RAIN  71  68  92 N5        29.96F
HOWELL         CLOUDY    80  63  54 NE7       29.97F

CITY           SKY/WX    TMP DP  RH WIND       PRES   REMARKS
JACKSON        CLOUDY    77  69  76 N8        29.96F
LAMBERTVILLE   MOSUNNY   86  67  53 NE3       29.92F
LANSING        LGT RAIN  75  62  64 N10       29.99F
LAPEER         FAIR      78  56  46 NE9G16    30.00S
MASON          CLOUDY    78  64  61 N8        29.97F
MONROE         PTSUNNY   83  70  63 SE7       29.91F
MT. CLEMENS    CLOUDY    79  65  61 NE12      29.95S
PONTIAC        CLOUDY    81  64  56 NE14      29.96F
PORT HOPE        N/A     71  62  73 NE17      30.03F
PORT HURON     MOSUNNY   77  64  65 N10G16    29.99S
TRI CITIES     PTSUNNY   74  64  71 NE16      30.03S
MIDLAND        CLOUDY    75  60  59 E10       30.03S
TROY           CLOUDY    83  63  51 N12       29.98F
SAGINAW HB     CLOUDY    77  57  50 NE10G16   30.01S
$$
MIZ043>046-050>051-056>058-064>065-071>073-077>080-292000-
SOUTHWEST LOWER MICHIGAN

CITY           SKY/WX    TMP DP  RH WIND       PRES   REMARKS
BATTLE CREEK   PTSUNNY   77  68  73 NE10      29.97F
BENTON HARBOR  MOSUNNY   84  67  56 VRB6      29.92F
BIG RAPIDS     PTSUNNY   76  64  66 E10G17    30.02F
COLDWATER      PTSUNNY   72  71  96 NE10      29.95F
FREMONT        FAIR      75  66  73 E12       30.00F
HOLLAND        CLOUDY    78  64  61 E12       29.97F
GRAND RAPIDS   CLOUDY    73  63  70 NE17      29.99F
IONIA          LGT RAIN  68  61  79 NE10G16   30.00F
KALAMAZOO      MOSUNNY   79  67  66 NE8       29.96F
LUDINGTON      CLOUDY    75  65  69 E9        30.00S
MARSHALL       MOSUNNY   76  70  79 N3        29.96F
MOUNT PLEASANT CLOUDY    75  61  60 E10       30.03S
MUSKEGON       CLOUDY    76  64  66 E9        29.98F
SOUTH HAVEN    PTSUNNY   79  68  69 NE9       29.93F
$$
MIZ016>042-292000-
NORTHERN LOWER MICHIGAN

CITY           SKY/WX    TMP DP  RH WIND       PRES   REMARKS
ALPENA         SUNNY     75  50  41 NE12      30.08S
BEAVER ISLAND  SUNNY     74  51  43 NE9       30.08S
BELLAIRE       SUNNY     79  49  34 N5        30.03S
CADILLAC       CLOUDY    73  60  63 E9        30.05S
CHARLEVOIX     SUNNY     76  59  56 N12       30.08F
FRANKFORT      MOSUNNY   80  57  44 SE6       30.02F
GAYLORD        PTSUNNY   77  51  40 NE7       30.06F
GRAYLING       PTSUNNY   82  52  35 NE10      30.05S
HARBOR SPRINGS MOSUNNY   76  55  47 E9G17     30.06S
HOUGHTON LAKE  CLOUDY    77  56  48 SE7       30.05F
MANISTEE       MOSUNNY   76  61  59 E10       30.01F
OSCODA         PTSUNNY   71  58  64 NE13G20   30.07S
PELLSTON       SUNNY     76  51  41 E12G21    30.07F
ROGERS CITY    SUNNY     71  54  55 NE8       30.10S
TRAVERSE CITY  PTSUNNY   79  56  45 N9        30.01F
$$
MIZ007>008-015-292000-
EASTERN UPPER MICHIGAN

CITY           SKY/WX    TMP DP  RH WIND       PRES   REMARKS
KINROSS        MOSUNNY   74  50  42 NE8       30.08S
MACKINAC ISLAN SUNNY     72  52  50 E10       30.08F
NEWBERRY       SUNNY     77  43  29 NE7       30.08S
S. S. MARIE    PTSUNNY   78  52  40 VRB6      30.07S
$$
MIZ004>006-011>014-085-292000-
CENTRAL UPPER MICHIGAN

CITY           SKY/WX    TMP DP  RH WIND       PRES   REMARKS
MANISTIQUE     MOSUNNY   73  60  63 S8        30.08R
ESCANABA       SUNNY     73  61  64 SE12      30.06F
SAWYER-GWINN   SUNNY     73  55  53 NE13      30.10S
$$
MIZ001>003-009>011-084-292000-
WESTERN UPPER MICHIGAN

CITY           SKY/WX    TMP DP  RH WIND       PRES   REMARKS
IRON MOUNTAIN  CLOUDY    74  54  49 E6        30.07S
HOUGHTON       SUNNY     74  54  49 E9        30.10S
COPPER HARBOR    N/A     70  57  63 E8        30.10R
IRONWOOD       MOSUNNY   72  57  60 N8        30.07S
$$

ABBREVIATIONS USED IN REMARKS
   TC - TEMPERATURE IN CELSIUS
  WCI - WIND CHILL INDEX
   HX - HEAT INDEX
  VSB - VISIBILITY





USA.gov is the U.S. government's official web portal to all federal, state and local government web resources and services.